Benson, MN

12:36 AM CDT on May 27, 2017 (GMT -0500)
Benson Municipal

Weather History for KBBB - January, 2013

Change the Weather History Date:

Thursday, January 17, 2013

  Actual Average Record
Temperature  
Mean Temperature 7 °F -  
Max Temperature 19 °F 18 °F 43 °F (1964)
Min Temperature -5 °F 1 °F -30 °F (1977)
Degree Days  
Heating Degree Days 58    
Moisture  
Dew Point 2 °F    
Average Humidity 71    
Maximum Humidity 79    
Minimum Humidity 61    
Precipitation  
Precipitation 0.00 in - - ()
Sea Level Pressure  
Sea Level Pressure 30.32 in    
Wind  
Wind Speed 6 mph (WNW)    
Max Wind Speed 16 mph    
Max Gust Speed -    
Visibility 10 miles    
Events Snow    
Averages and records for this station are not official NWS values.
T = Trace of Precipitation, MM = Missing Value Source: NWS Daily Summary

Daily Weather History Graph

Daily Weather History Graph

Search for Another Location

Airport or City:

Trip Planner

Search our weather history database for the weather conditions in past years. The results will help you decide how hot, cold, wet, or windy it might be!

Date:

Astronomy

Jan. 17, 2013 Rise Set
Actual Time 7:56 AM CST 5:09 PM CST
Civil Twilight 7:24 AM CST 5:41 PM CST
Nautical Twilight 6:47 AM CST 6:18 PM CST
Astronomical Twilight 6:12 AM CST 6:53 PM CST
Moon 10:43 AM CST (1/17) No Moon Set
Length of Visible Light 10h 17m
Length of Day
9h 12m
Waxing Crescent, 38% of the Moon is Illuminated
Jan 17
Waxing Crescent
Jan 18
First Quarter
Jan 26
Full
Feb 3
Last Quarter
Feb 10
New

Hourly Weather History & Observations

Time (CST) Temp. Windchill Dew Point Humidity Pressure Visibility Wind Dir Wind Speed Gust Speed Precip Events Conditions
12:12 AM -2.2 °F -16.8 °F -9.4 °F 71% 30.27 in 10.0 mi NNE 8.1 mph - N/A   Clear
12:33 AM -2.2 °F -16.8 °F -11.2 °F 66% 30.27 in 10.0 mi NNE 8.1 mph - N/A   Clear
12:53 AM -4.0 °F -14.6 °F -11.2 °F 71% 30.28 in 10.0 mi North 4.6 mph - N/A   Clear
1:12 AM -4.0 °F -17.8 °F -11.2 °F 71% 30.29 in 10.0 mi NNW 6.9 mph - N/A   Clear
1:33 AM -4.0 °F -17.8 °F -9.4 °F 78% 30.30 in 10.0 mi NNW 6.9 mph - N/A   Clear
1:53 AM -4.0 °F -17.8 °F -11.2 °F 71% 30.31 in 10.0 mi WNW 6.9 mph - N/A   Clear
2:12 AM -5.8 °F -18.4 °F -11.2 °F 77% 30.31 in 10.0 mi WNW 5.8 mph - N/A   Clear
2:33 AM -4.0 °F -17.8 °F -11.2 °F 71% 30.32 in 10.0 mi WNW 6.9 mph - N/A   Clear
2:53 AM -2.2 °F -15.6 °F -11.2 °F 66% 30.33 in 10.0 mi NW 6.9 mph - N/A   Mostly Cloudy
3:12 AM -0.4 °F -15.7 °F -9.4 °F 66% 30.34 in 10.0 mi WNW 9.2 mph - N/A   Overcast
3:33 AM -0.4 °F -14.7 °F -9.4 °F 66% 30.33 in 10.0 mi WNW 8.1 mph - N/A   Overcast
3:53 AM -0.4 °F -12.0 °F -9.4 °F 66% 30.33 in 10.0 mi WNW 5.8 mph - N/A   Overcast
4:12 AM 1.4 °F -11.3 °F -9.4 °F 61% 30.33 in 10.0 mi West 6.9 mph - N/A   Overcast
4:33 AM 1.4 °F -8.3 °F -7.6 °F 66% 30.33 in 10.0 mi West 4.6 mph - N/A   Overcast
5:12 AM 1.4 °F - -7.6 °F 66% 30.32 in 10.0 mi Calm Calm - N/A   Overcast
5:33 AM 1.4 °F -6.2 °F -7.6 °F 66% 30.31 in 10.0 mi SW 3.5 mph - N/A   Overcast
5:53 AM 3.2 °F -9.1 °F -5.8 °F 66% 30.32 in 10.0 mi WSW 6.9 mph - N/A   Overcast
6:12 AM 3.2 °F -9.1 °F -5.8 °F 66% 30.33 in 10.0 mi WSW 6.9 mph - N/A   Overcast
6:33 AM 3.2 °F -10.3 °F -4.0 °F 72% 30.31 in 10.0 mi WSW 8.1 mph - N/A Snow Light Snow
6:53 AM 5.0 °F -5.6 °F -2.2 °F 72% 30.31 in 10.0 mi SW 5.8 mph - N/A Snow Light Snow
7:12 AM 5.0 °F -4.1 °F -2.2 °F 72% 30.32 in 10.0 mi WSW 4.6 mph - N/A   Overcast
7:33 AM 6.8 °F -3.5 °F -2.2 °F 67% 30.31 in 10.0 mi SW 5.8 mph - N/A Snow Light Snow
7:53 AM 6.8 °F -2.0 °F -2.2 °F 67% 30.31 in 10.0 mi SW 4.6 mph - N/A Snow Light Snow
8:12 AM 6.8 °F -2.0 °F -2.2 °F 67% 30.31 in 10.0 mi SSW 4.6 mph - N/A Snow Light Snow
8:33 AM 6.8 °F -2.0 °F -0.4 °F 72% 30.31 in 10.0 mi SW 4.6 mph - N/A   Overcast
8:53 AM 8.6 °F 2.0 °F -0.4 °F 67% 30.33 in 10.0 mi SSW 3.5 mph - N/A Snow Light Snow
9:12 AM 8.6 °F 2.0 °F 1.4 °F 73% 30.34 in 10.0 mi SSW 3.5 mph - N/A   Overcast
9:33 AM 10.4 °F 4.0 °F 1.4 °F 67% 30.36 in 10.0 mi WSW 3.5 mph - N/A   Overcast
9:53 AM 10.4 °F 4.0 °F 1.4 °F 67% 30.36 in 10.0 mi WSW 3.5 mph - N/A   Overcast
10:12 AM 10.4 °F -0.4 °F 3.2 °F 73% 30.36 in 10.0 mi WSW 6.9 mph - N/A   Overcast
10:33 AM 12.2 °F 4.3 °F 3.2 °F 67% 30.37 in 10.0 mi WSW 4.6 mph - N/A   Scattered Clouds
10:53 AM 12.2 °F 4.3 °F 3.2 °F 67% 30.37 in 10.0 mi WSW 4.6 mph - N/A   Clear
11:13 AM 14.0 °F 6.5 °F 5.0 °F 67% 30.37 in 10.0 mi West 4.6 mph - N/A   Clear
11:33 AM 15.8 °F 10.2 °F 6.8 °F 68% 30.37 in 10.0 mi West 3.5 mph - N/A   Clear
11:52 AM 15.8 °F - 8.6 °F 73% 30.37 in 10.0 mi Calm Calm - N/A   Scattered Clouds
12:12 PM 17.6 °F 12.3 °F 8.6 °F 68% 30.36 in 10.0 mi NW 3.5 mph - N/A   Mostly Cloudy
12:52 PM 19.4 °F 7.9 °F 12.2 °F 74% 30.36 in 10.0 mi North 10.4 mph - N/A   Scattered Clouds
1:13 PM 19.4 °F 5.5 °F 12.2 °F 74% 30.37 in 10.0 mi North 15.0 mph - N/A   Scattered Clouds
1:33 PM 17.6 °F 2.7 °F 10.4 °F 73% 30.36 in 10.0 mi North 16.1 mph - N/A   Scattered Clouds
1:52 PM 17.6 °F 5.0 °F 10.4 °F 73% 30.36 in 10.0 mi North 11.5 mph - N/A   Clear
2:13 PM 17.6 °F 4.3 °F 8.6 °F 68% 30.37 in 10.0 mi North 12.7 mph - N/A   Clear
2:33 PM 17.6 °F 7.3 °F 8.6 °F 68% 30.36 in 10.0 mi North 8.1 mph - N/A   Clear
2:52 PM 15.8 °F 2.7 °F 6.8 °F 68% 30.37 in 10.0 mi North 11.5 mph - N/A   Clear
3:13 PM 15.8 °F 2.7 °F 6.8 °F 68% 30.37 in 10.0 mi NNW 11.5 mph - N/A   Clear
3:33 PM 15.8 °F 1.4 °F 6.8 °F 68% 30.36 in 10.0 mi North 13.8 mph - N/A   Scattered Clouds
3:52 PM 15.8 °F 3.4 °F 6.8 °F 68% 30.36 in 10.0 mi North 10.4 mph - N/A   Mostly Cloudy
4:13 PM 14.0 °F 1.2 °F 5.0 °F 67% 30.36 in 10.0 mi North 10.4 mph - N/A   Overcast
4:32 PM 14.0 °F 2.0 °F 6.8 °F 73% 30.37 in 10.0 mi NNW 9.2 mph - N/A   Overcast
4:53 PM 14.0 °F 5.1 °F 6.8 °F 73% 30.37 in 10.0 mi NW 5.8 mph - N/A   Overcast
5:13 PM 12.2 °F 1.7 °F 6.8 °F 79% 30.37 in 10.0 mi North 6.9 mph - N/A   Overcast
5:32 PM 12.2 °F 4.3 °F 6.8 °F 79% 30.36 in 10.0 mi NNW 4.6 mph - N/A   Overcast
5:53 PM 12.2 °F 4.3 °F 6.8 °F 79% 30.36 in 10.0 mi North 4.6 mph - N/A   Overcast
6:13 PM 12.2 °F 4.3 °F 6.8 °F 79% 30.34 in 10.0 mi NNE 4.6 mph - N/A   Overcast
6:53 PM 12.2 °F - 6.8 °F 79% 30.33 in 10.0 mi Calm Calm - N/A   Overcast
7:12 PM 12.2 °F - 6.8 °F 79% 30.34 in 10.0 mi Calm Calm - N/A   Overcast
7:33 PM 12.2 °F - 6.8 °F 79% 30.33 in 10.0 mi Calm Calm - N/A   Overcast
7:53 PM 12.2 °F - 6.8 °F 79% 30.33 in 10.0 mi Calm Calm - N/A   Overcast
8:12 PM 12.2 °F - 6.8 °F 79% 30.31 in 10.0 mi Calm Calm - N/A   Overcast
8:53 PM 14.0 °F - 6.8 °F 73% 30.31 in 10.0 mi Calm Calm - N/A   Overcast
9:12 PM 14.0 °F - 6.8 °F 73% 30.29 in 10.0 mi Calm Calm - N/A   Overcast
9:33 PM 14.0 °F 8.2 °F 6.8 °F 73% 30.28 in 10.0 mi SE 3.5 mph - N/A   Overcast
9:53 PM 14.0 °F 5.1 °F 6.8 °F 73% 30.26 in 10.0 mi South 5.8 mph - N/A   Overcast
10:12 PM 14.0 °F 5.1 °F 6.8 °F 73% 30.25 in 10.0 mi South 5.8 mph - N/A Snow Light Snow
10:33 PM 14.0 °F 3.9 °F 6.8 °F 73% 30.23 in 10.0 mi South 6.9 mph - N/A   Overcast
10:52 PM 14.0 °F 2.9 °F 8.6 °F 79% 30.22 in 10.0 mi SE 8.1 mph - N/A   Overcast
11:13 PM 14.0 °F 2.9 °F 8.6 °F 79% 30.21 in 10.0 mi South 8.1 mph - N/A   Overcast
11:33 PM 15.8 °F 6.1 °F 8.6 °F 73% 30.20 in 10.0 mi South 6.9 mph - N/A Snow Light Snow
11:52 PM 15.8 °F 4.2 °F 8.6 °F 73% 30.18 in 10.0 mi SSE 9.2 mph - N/A Snow Light Snow